Address 0xc6014c33dda388707ce4950608881de10491dae4 1

Txn Hash Method
Block
From
To
Value [Txn Fee]
0x55868348daca79cd7ce95448ac830c6ab5e7d649b5c17026c762a7a4db285a400xbef1e500138377982022-09-23 10:38:346 days 39 mins ago0xc6014c33dda388707ce4950608881de10491dae4OUT0x2e1d0c56c6913fd6135f887080f7a14123a142a80 AVAX0.00781935 27.5
0x937876844afc74f2cbaa34fd4bba56a7a16f113842736210839653a88803a2f90xab07211e138338402022-09-23 8:26:366 days 2 hrs ago0xc6014c33dda388707ce4950608881de10491dae4OUT0x2e1d0c56c6913fd6135f887080f7a14123a142a80 AVAX0.0062124425 27.5
0x0fb868f7c515d018ddd6cad7a1ebfcf403e41fae5dd936cafe03e82f65b3e7810xab07211e138338232022-09-23 8:26:026 days 2 hrs ago0xc6014c33dda388707ce4950608881de10491dae4OUT0x2e1d0c56c6913fd6135f887080f7a14123a142a80 AVAX0.0062787725 27.5
0x84734e6dca503b2175e03c1d685d0a46c98d35bf2ff0d56d1b17cee6d12dd0950x4ea4c6b3138337692022-09-23 8:24:146 days 2 hrs ago0xc6014c33dda388707ce4950608881de10491dae4OUT0x2e1d0c56c6913fd6135f887080f7a14123a142a80 AVAX0.007572785 27.5
0xc3463826490c72b3a04b053ea7876dec7fffe30e62e24d59205304be9b372840Remove Liquidity138337252022-09-23 8:22:466 days 2 hrs ago0xc6014c33dda388707ce4950608881de10491dae4OUT0x2e1d0c56c6913fd6135f887080f7a14123a142a80 AVAX0.0069863475 27.5
0xe3570af7e06895009fff6519e3859917b33c1d655517f9835e225d5bbe7d22060x4ea4c6b3138337052022-09-23 8:22:066 days 2 hrs ago0xc6014c33dda388707ce4950608881de10491dae4OUT0x2e1d0c56c6913fd6135f887080f7a14123a142a80 AVAX0.00771595 27.5
0x69c5b20b0e279be7da755b4c9e2846a8b97a36ac4bdb91d29ac6720d208e52640x8a6655d6137954322022-09-22 11:01:077 days 16 mins ago0xc6014c33dda388707ce4950608881de10491dae4OUT0x41102fb90121896e52868c0882dcbc74f9ca76060 AVAX0.002890635 27.5
0x35400eb229a6254e3d38c29a1df5bb6c9caf01f189f536946f8e296d0e6e8d3f0x6549920d137940412022-09-22 10:14:457 days 1 hr ago0xc6014c33dda388707ce4950608881de10491dae4OUT0x2e1d0c56c6913fd6135f887080f7a14123a142a80 AVAX0.0173811 27.5
0x2308691f495878a30b5965c2290439161faf095e3a22f457a59ee0702c56d210Approve137939792022-09-22 10:12:427 days 1 hr ago0xc6014c33dda388707ce4950608881de10491dae4OUT0x0faf4bf0bf669cad5a3ce24839abc9d143d0cb7e0 AVAX0.0012741025 27.5
0x6e8d69e8d4d13111348d8c39f9f6345068c4c643c753a9dd92ff59673c5924c3Mint137939702022-09-22 10:12:237 days 1 hr ago0xc6014c33dda388707ce4950608881de10491dae4OUT0x0faf4bf0bf669cad5a3ce24839abc9d143d0cb7e0 AVAX0.002083895 27.5
0x97c0a230dc5566ef13c6e721ec1da0a3dd6d6da2a3b7d267db520a9003782fcc0x6549920d137939482022-09-22 10:11:397 days 1 hr ago0xc6014c33dda388707ce4950608881de10491dae4OUT0x2e1d0c56c6913fd6135f887080f7a14123a142a80 AVAX0.0173811 27.5
0xd38502db1659c716e86e143d978d0564f125a6020aab0768b643b70066bfacb5Approve137939322022-09-22 10:11:077 days 1 hr ago0xc6014c33dda388707ce4950608881de10491dae4OUT0x7dad0ddefd94d75c598e791375b3daaae04a05dc0 AVAX0.001287595877 27.791238649
0x6d867049faf8f1f5a1b049b590028b8d0a7481727191dc5cc9002907eb4dd1eeMint137939172022-09-22 10:10:377 days 1 hr ago0xc6014c33dda388707ce4950608881de10491dae4OUT0x7dad0ddefd94d75c598e791375b3daaae04a05dc0 AVAX0.002083895 27.5
0xb3724c335d80344590841eb88eadc95f697d1c9ec139cce7e8adf89aefc225ec0x8a6655d6137795402022-09-22 2:11:307 days 9 hrs ago0xc6014c33dda388707ce4950608881de10491dae4OUT0xba818c3a8c961e22be7b399b14cd384c08dd94a90 AVAX0.003882869511 33.08906577
0xa40d7f5dc4e23289fe464dee6bd77fce81956746b2dcd517089d87daf7d491330x6549920d137409992022-09-21 4:45:258 days 6 hrs ago0xc6014c33dda388707ce4950608881de10491dae4OUT0x2e1d0c56c6913fd6135f887080f7a14123a142a80 AVAX0.016387268896 27.686669319
0x5e45fb6047acddd8928267102ec2d8aa3edd1538cf6a990215007f3327b6b5d6Approve137409892022-09-21 4:45:068 days 6 hrs ago0xc6014c33dda388707ce4950608881de10491dae4OUT0x85e09719085a65be7ccb86a939418474d5c351d30 AVAX0.0012741025 27.5
0x2af6e804a609a3d43ee0aa6302a24d5f6fb306425cfea7972874dc044e7442a40x6549920d137409652022-09-21 4:44:188 days 6 hrs ago0xc6014c33dda388707ce4950608881de10491dae4OUT0x2e1d0c56c6913fd6135f887080f7a14123a142a80 AVAX0.0162767825 27.5
0x1a3c51f157dd1c7a3c97d07ebb2a8b488bde75d79287689f5a1689cbad90968cApprove137409522022-09-21 4:43:528 days 6 hrs ago0xc6014c33dda388707ce4950608881de10491dae4OUT0x5462894dee859029c2939e74485865da2148f63c0 AVAX0.0012741025 27.5
0x4b105928bf54a52cd20c351cde0d2ecc8694c5b8340656dd6edcbaef2c67f8f1Mint137409152022-09-21 4:42:378 days 6 hrs ago0xc6014c33dda388707ce4950608881de10491dae4OUT0x85e09719085a65be7ccb86a939418474d5c351d30 AVAX0.001613645 27.5
0x4ca7bb34a9f2ccf3f6266a1aa78e4238ca63f5fd222c675a086c87604662cdb9Mint137409042022-09-21 4:42:158 days 6 hrs ago0xc6014c33dda388707ce4950608881de10491dae4OUT0x5462894dee859029c2939e74485865da2148f63c0 AVAX0.001617524265 27.566111064
0x8e626da0e3fe1cf0abccaf9b781323be8c6c76b145a5057ee3e66b258dce32ce0xab07211e137408772022-09-21 4:41:218 days 6 hrs ago0xc6014c33dda388707ce4950608881de10491dae4OUT0x2e1d0c56c6913fd6135f887080f7a14123a142a80 AVAX0.006768205365 27.851894659
0xbbf23b612588e0b0ca4a06fe086ec0ad94e30388bd3e796b55b8dc05309a01930xab07211e137408342022-09-21 4:39:558 days 6 hrs ago0xc6014c33dda388707ce4950608881de10491dae4OUT0x2e1d0c56c6913fd6135f887080f7a14123a142a80 AVAX0.006705454211 27.593666898
0x9eb4e462eb57a700b40f8853db4d44357185dc520b278a97dbaa4616283671e00x4ea4c6b3137407952022-09-21 4:38:378 days 6 hrs ago0xc6014c33dda388707ce4950608881de10491dae4OUT0x2e1d0c56c6913fd6135f887080f7a14123a142a80 AVAX0.007647228531 27.771546297
0x0cd9def850d19eab5aee78164203ebad705c36b894cb194caa651f21a01f2b080x4ea4c6b3137407662022-09-21 4:37:408 days 6 hrs ago0xc6014c33dda388707ce4950608881de10491dae4OUT0x2e1d0c56c6913fd6135f887080f7a14123a142a80 AVAX0.007572455 27.5
0x51e25b0c6f75e9093170397d06088066f3f71fe10f84c4ac5cce2af2ff8767fcApprove137407312022-09-21 4:36:308 days 6 hrs ago0xc6014c33dda388707ce4950608881de10491dae4OUT0x1fd47761f7cde31ac4c6a5c40a0473781513bcae0 AVAX0.0014724325 27.5
[ Download CSV Export 
Parent Txn Hash Block From To Value
Loading

Contract Name:
0

Compiler Version
0

Optimization Enabled:
0

Other Settings:
-NA-
Block Transaction Gas Used Reward
Age Block Fee Address BC Fee Address Voting Power Jailed Incoming
Block Uncle Number Difficulty Gas Used Reward
Loading